When you browse on this site, cookies collect data to enhance your experience and personalize the content and advertising you see.
Visit our Privacy Policy to learn more. By continuing to use the site, you agree to this use of cookies and data.
  • In Austria
  • List of Countries
  • For 7 days
  • Water Temperature
  • Satellite Maps
  • Weather Map
  • News
  • Weather Widgets
  • user-avatar
    Login

    Hourly Weather Poplyahny

    Today, 18 February, Monday

    Time Temperature Precipitation Wind Pressure Humidity
    00:00 -4°C° 0 mm 4 mps 755 mmHg 78%
    01:00 -5°C° 0 mm 3 mps 755 mmHg 79%
    02:00 -5°C° 0 mm 3 mps 756 mmHg 79%
    03:00 -5°C° 0 mm 3 mps 756 mmHg 80%
    04:00 -6°C° 0 mm 3 mps 757 mmHg 81%
    05:00 -5°C° 0 mm 2 mps 758 mmHg 82%
    06:00 -5°C° 0 mm 2 mps 758 mmHg 83%
    07:00 -5°C° 0 mm 2 mps 758 mmHg 84%
    08:00 -6°C° 0 mm 2 mps 759 mmHg 84%
    09:00 -5°C° 0 mm 2 mps 759 mmHg 80%
    10:00 -4°C° 0 mm 2 mps 760 mmHg 75%
    11:00 -1°C° 0 mm 1 mps 760 mmHg 71%
    12:00 -1°C° 0 mm 1 mps 760 mmHg 67%
    13:00 0°C° 0 mm 1 mps 760 mmHg 64%
    14:00 0°C° 0 mm 1 mps 760 mmHg 60%
    15:00 0°C° 0 mm 1 mps 760 mmHg 64%
    16:00 -1°C° 0 mm 1 mps 760 mmHg 67%
    17:00 -2°C° 0 mm 1 mps 760 mmHg 71%
    18:00 -2°C° 0 mm 1 mps 759 mmHg 73%
    19:00 -2°C° 0 mm 1 mps 759 mmHg 74%
    20:00 -4°C° 0 mm 2 mps 759 mmHg 76%
    21:00 -4°C° 0 mm 2 mps 759 mmHg 75%
    22:00 -5°C° 0 mm 3 mps 759 mmHg 74%
    23:00 -5°C° 0 mm 3 mps 758 mmHg 73%

    Tomorrow, 19 February, Tuesday

    Time Temperature Precipitation Wind Pressure Humidity
    00:00 -5°C° 0 mm 3 mps 758 mmHg 72%
    01:00 -5°C° 0 mm 4 mps 757 mmHg 70%
    02:00 -5°C° 0 mm 4 mps 757 mmHg 69%
    03:00 -4°C° 0 mm 4 mps 756 mmHg 69%
    04:00 -4°C° 0 mm 4 mps 756 mmHg 70%
    05:00 -4°C° 0 mm 4 mps 755 mmHg 71%
    06:00 -4°C° 0 mm 4 mps 755 mmHg 74%
    07:00 -4°C° 0 mm 4 mps 754 mmHg 77%
    08:00 -3°C° 0 mm 4 mps 754 mmHg 80%
    09:00 -2°C° 0 mm 5 mps 753 mmHg 77%
    10:00 -1°C° 0 mm 5 mps 753 mmHg 75%
    11:00 0°C° 0 mm 5 mps 752 mmHg 72%
    12:00 0°C° 0 mm 5 mps 752 mmHg 72%
    13:00 +1°C° 0 mm 5 mps 751 mmHg 72%
    14:00 +1°C° 0 mm 5 mps 750 mmHg 72%
    15:00 +1°C° 0 mm 5 mps 750 mmHg 75%
    16:00 0°C° 0 mm 5 mps 749 mmHg 78%
    17:00 -1°C° 0 mm 4 mps 749 mmHg 81%
    18:00 -1°C° 0 mm 4 mps 748 mmHg 83%
    19:00 -1°C° 0 mm 5 mps 748 mmHg 85%
    20:00 -1°C° 0 mm 5 mps 747 mmHg 87%
    21:00 -1°C° 0 mm 5 mps 746 mmHg 88%
    22:00 0°C° 0 mm 4 mps 746 mmHg 88%
    23:00 0°C° 0 mm 4 mps 745 mmHg 88%

    Day after tomorrow, 20 February, Wednesday

    Time Temperature Precipitation Wind Pressure Humidity
    00:00 0°C° 0 mm 4 mps 745 mmHg 89%
    01:00 0°C° 0 mm 4 mps 744 mmHg 89%
    02:00 0°C° 0 mm 4 mps 744 mmHg 89%
    03:00 0°C° 0.4 mm 4 mps 743 mmHg 88%
    04:00 0°C° 0.4 mm 5 mps 743 mmHg 88%
    05:00 0°C° 0.4 mm 5 mps 742 mmHg 88%
    06:00 0°C° 0.1 mm 4 mps 742 mmHg 89%
    07:00 0°C° 0.1 mm 4 mps 742 mmHg 89%
    08:00 +1°C° 0.1 mm 4 mps 743 mmHg 90%
    09:00 +1°C° 0 mm 4 mps 742 mmHg 86%
    10:00 +3°C° 0 mm 4 mps 742 mmHg 82%
    11:00 +2°C° 0 mm 5 mps 742 mmHg 78%
    12:00 +2°C° 0.2 mm 5 mps 742 mmHg 79%
    13:00 +2°C° 0.2 mm 5 mps 742 mmHg 80%
    14:00 +1°C° 0.2 mm 5 mps 741 mmHg 81%
    15:00 +1°C° 0.2 mm 5 mps 741 mmHg 81%
    16:00 +1°C° 0.2 mm 5 mps 741 mmHg 82%
    17:00 +1°C° 0.2 mm 5 mps 741 mmHg 82%
    18:00 0°C° 0.1 mm 5 mps 742 mmHg 78%
    19:00 -1°C° 0.1 mm 5 mps 742 mmHg 75%
    20:00 -2°C° 0.1 mm 4 mps 742 mmHg 71%
    21:00 -2°C° 0.1 mm 5 mps 742 mmHg 73%
    22:00 -4°C° 0.1 mm 5 mps 742 mmHg 75%
    23:00 -4°C° 0.1 mm 5 mps 743 mmHg 77%

    21 February, Thursday

    Time Temperature Precipitation Wind Pressure Humidity
    00:00 -4°C° 0.1 mm 6 mps 743 mmHg 77%
    01:00 -5°C° 0.1 mm 6 mps 743 mmHg 77%
    02:00 -5°C° 0.1 mm 6 mps 743 mmHg 77%
    03:00 -5°C° 0.2 mm 6 mps 744 mmHg 76%
    04:00 -5°C° 0.2 mm 6 mps 744 mmHg 76%
    05:00 -5°C° 0.2 mm 6 mps 744 mmHg 75%
    06:00 -5°C° 0.1 mm 6 mps 745 mmHg 73%
    07:00 -6°C° 0.1 mm 6 mps 745 mmHg 70%
    08:00 -7°C° 0.1 mm 7 mps 746 mmHg 67%
    09:00 -7°C° 0.1 mm 7 mps 747 mmHg 67%
    10:00 -7°C° 0.1 mm 7 mps 748 mmHg 67%
    11:00 -7°C° 0.1 mm 7 mps 749 mmHg 66%
    12:00 -6°C° 0.1 mm 6 mps 750 mmHg 66%
    13:00 -6°C° 0.1 mm 6 mps 751 mmHg 65%
    14:00 -6°C° 0.1 mm 6 mps 752 mmHg 65%
    15:00 -8°C° 0 mm 6 mps 753 mmHg 66%
    16:00 -8°C° 0 mm 6 mps 754 mmHg 66%
    17:00 -8°C° 0 mm 6 mps 754 mmHg 67%
    18:00 -9°C° 0 mm 6 mps 755 mmHg 67%
    19:00 -9°C° 0 mm 6 mps 756 mmHg 67%
    20:00 -9°C° 0 mm 6 mps 757 mmHg 67%
    21:00 -10°C° 0 mm 5 mps 758 mmHg 67%
    22:00 -10°C° 0 mm 5 mps 758 mmHg 67%
    23:00 -10°C° 0 mm 5 mps 759 mmHg 67%

    22 February, Friday

    Time Temperature Precipitation Wind Pressure Humidity
    00:00 -11°C° 0 mm 5 mps 759 mmHg 67%
    01:00 -11°C° 0 mm 5 mps 760 mmHg 68%
    02:00 -12°C° 0 mm 5 mps 761 mmHg 69%
    03:00 -12°C° 0 mm 5 mps 761 mmHg 69%
    04:00 -12°C° 0 mm 5 mps 762 mmHg 70%
    05:00 -13°C° 0 mm 5 mps 763 mmHg 71%
    06:00 -11°C° 0 mm 4 mps 764 mmHg 69%
    07:00 -11°C° 0 mm 4 mps 765 mmHg 67%
    08:00 -11°C° 0 mm 4 mps 766 mmHg 66%
    09:00 -10°C° 0 mm 4 mps 766 mmHg 63%
    10:00 -8°C° 0 mm 3 mps 767 mmHg 60%
    11:00 -7°C° 0 mm 3 mps 767 mmHg 57%
    12:00 -7°C° 0 mm 3 mps 768 mmHg 56%
    13:00 -6°C° 0 mm 3 mps 768 mmHg 55%
    14:00 -5°C° 0 mm 3 mps 768 mmHg 54%
    15:00 -6°C° 0 mm 3 mps 768 mmHg 58%
    16:00 -5°C° 0 mm 2 mps 769 mmHg 62%
    17:00 -6°C° 0 mm 2 mps 769 mmHg 66%
    18:00 -6°C° 0 mm 2 mps 769 mmHg 69%
    19:00 -7°C° 0 mm 2 mps 769 mmHg 73%
    20:00 -7°C° 0 mm 2 mps 770 mmHg 76%
    21:00 -7°C° 0 mm 2 mps 770 mmHg 75%
    22:00 -7°C° 0 mm 1 mps 770 mmHg 75%
    23:00 -7°C° 0 mm 1 mps 770 mmHg 74%

    23 February, Saturday

    Time Temperature Precipitation Wind Pressure Humidity
    00:00 -7°C° 0 mm 1 mps 769 mmHg 74%
    01:00 -7°C° 0 mm 1 mps 769 mmHg 73%
    02:00 -7°C° 0 mm 1 mps 768 mmHg 73%
    03:00 -7°C° 0 mm 2 mps 768 mmHg 70%
    04:00 -7°C° 0 mm 2 mps 767 mmHg 67%
    05:00 -6°C° 0 mm 2 mps 766 mmHg 65%
    06:00 -6°C° 0.5 mm 2 mps 765 mmHg 74%
    07:00 -7°C° 0.5 mm 3 mps 765 mmHg 84%
    08:00 -7°C° 0.5 mm 3 mps 764 mmHg 93%
    09:00 -7°C° 1 mm 3 mps 763 mmHg 93%
    10:00 -6°C° 1 mm 3 mps 763 mmHg 92%
    11:00 -6°C° 1 mm 3 mps 762 mmHg 92%
    12:00 -5°C° 0.2 mm 3 mps 761 mmHg 91%
    13:00 -4°C° 0.2 mm 3 mps 761 mmHg 90%
    14:00 -2°C° 0.2 mm 3 mps 760 mmHg 89%
    15:00 -2°C° 0 mm 3 mps 760 mmHg 90%
    16:00 -2°C° 0 mm 2 mps 760 mmHg 91%
    17:00 -1°C° 0 mm 2 mps 760 mmHg 92%
    18:00 -1°C° 0 mm 2 mps 760 mmHg 94%
    19:00 -1°C° 0 mm 2 mps 760 mmHg 95%
    20:00 +1°C° 0 mm 2 mps 761 mmHg 96%
    21:00 +1°C° 0 mm 2 mps 761 mmHg 96%
    22:00 +1°C° 0 mm 2 mps 761 mmHg 97%
    23:00 +2°C° 0 mm 1 mps 761 mmHg 97%
    Show more